Weather History for KNFL - June, 2013

Change the Weather History Date:

Monday, June 24, 2013

  Actual Average Record
Temperature  
Mean Temperature 59 °F -  
Max Temperature 72 °F 84 °F 102 °F (1961)
Min Temperature 48 °F 49 °F 35 °F (1955)
Degree Days  
Heating Degree Days 6    
Growing Degree Days 9 (Base 50)    
Moisture  
Dew Point 43 °F    
Average Humidity 51    
Maximum Humidity 78    
Minimum Humidity 30    
Precipitation  
Precipitation 0.03 in - - ()
Sea Level Pressure  
Sea Level Pressure 29.78 in    
Wind  
Wind Speed 5 mph (SE)    
Max Wind Speed 13 mph    
Max Gust Speed 18 mph    
Visibility 10 miles    
Events Rain    
Averages and records for this station are not official NWS values.
T = Trace of Precipitation, MM = Missing Value Source: NWS Daily Summary

Daily Weather History Graph

Daily Weather History Graph

Search for Another Location

Airport or City:

Trip Planner

Search our weather history database for the weather conditions in past years. The results will help you decide how hot, cold, wet, or windy it might be!

Date:

Astronomy

Jun. 24, 2013 Rise Set
Actual Time 5:28 AM PDT 8:25 PM PDT
Civil Twilight 4:56 AM PDT 8:58 PM PDT
Nautical Twilight 4:15 AM PDT 9:39 PM PDT
Astronomical Twilight 3:27 AM PDT 10:26 PM PDT
Moon 9:32 PM PDT (6/24) 7:01 AM PDT (6/24)
Length of Visible Light 16h 01m
Length of Day
14h 56m
Full, 97% of the Moon is Illuminated
Jun 24
Full
Jun 29
Last Quarter
Jul 8
New
Jul 15
First Quarter
Jul 22
Full

Hourly Weather History & Observations

Time (PDT) Temp. Dew Point Humidity Pressure Visibility Wind Dir Wind Speed Gust Speed Precip Events Conditions
12:56 AM 62.1 °F 36.0 °F 38% 29.75 in 10.0 mi NNW 3.5 mph - N/A   Clear
1:56 AM 55.0 °F 34.0 °F 45% 29.74 in 10.0 mi Calm Calm - N/A   Clear
2:56 AM 55.9 °F 35.1 °F 45% 29.73 in 10.0 mi NNW 5.8 mph - N/A   Clear
3:56 AM 55.0 °F 35.1 °F 47% 29.73 in 10.0 mi West 5.8 mph - N/A   Clear
4:56 AM 48.9 °F 34.0 °F 56% 29.73 in 10.0 mi SSE 5.8 mph - N/A   Clear
5:56 AM 51.1 °F 33.1 °F 50% 29.73 in 10.0 mi SE 5.8 mph - N/A   Clear
6:28 AM 55.4 °F 33.8 °F 44% 29.79 in 10.0 mi SSE 5.8 mph - N/A   Overcast
6:56 AM 57.9 °F 34.0 °F 41% 29.74 in 10.0 mi SSE 3.5 mph - N/A   Overcast
7:56 AM 61.0 °F 35.1 °F 38% 29.73 in 10.0 mi East 4.6 mph - N/A   Overcast
8:56 AM 64.0 °F 36.0 °F 35% 29.74 in 10.0 mi South 4.6 mph - N/A   Overcast
9:56 AM 66.0 °F 35.1 °F 32% 29.74 in 10.0 mi South 4.6 mph - N/A   Overcast
10:52 AM 68.0 °F 35.6 °F 30% 29.81 in 10.0 mi WSW 6.9 mph - 0.00 in Rain Light Rain
10:56 AM 68.0 °F 37.0 °F 32% 29.75 in 10.0 mi WSW 6.9 mph - 0.00 in Rain Light Rain
11:56 AM 68.0 °F 41.0 °F 37% 29.75 in 10.0 mi SSE 6.9 mph - 0.00 in Rain Light Rain
12:56 PM 66.9 °F 43.0 °F 42% 29.76 in 10.0 mi WNW 6.9 mph - 0.00 in Rain Light Rain
1:56 PM 66.0 °F 48.0 °F 52% 29.78 in 10.0 mi NE 4.6 mph - 0.00 in Rain Light Rain
2:56 PM 70.0 °F 48.0 °F 46% 29.77 in 10.0 mi NNW 6.9 mph - 0.00 in   Mostly Cloudy
3:56 PM 69.1 °F 46.9 °F 45% 29.78 in 10.0 mi NE 5.8 mph - N/A   Mostly Cloudy
4:43 PM 69.8 °F 46.4 °F 43% 29.86 in 10.0 mi NW 12.7 mph 18.4 mph 0.00 in Rain Light Rain
4:56 PM 66.9 °F 48.0 °F 51% 29.79 in 10.0 mi WNW 11.5 mph - 0.00 in Rain Light Rain
5:56 PM 63.0 °F 52.0 °F 67% 29.81 in 10.0 mi North 3.5 mph - 0.01 in Rain Light Rain
6:56 PM 63.0 °F 52.0 °F 67% 29.81 in 10.0 mi NE 4.6 mph - 0.01 in Rain Light Rain
7:56 PM 62.1 °F 52.0 °F 70% 29.83 in 10.0 mi Calm Calm - 0.01 in Rain Light Rain
8:33 PM 60.8 °F 53.6 °F 77% 29.90 in 10.0 mi SE 6.9 mph - 0.00 in   Overcast
8:56 PM 60.1 °F 53.1 °F 78% 29.82 in 10.0 mi ESE 3.5 mph - 0.00 in   Mostly Cloudy
9:56 PM 60.1 °F 52.0 °F 75% 29.85 in 10.0 mi SE 6.9 mph - N/A   Mostly Cloudy
10:56 PM 59.0 °F 52.0 °F 78% 29.85 in 10.0 mi SE 6.9 mph - N/A   Overcast
11:56 PM 60.1 °F 53.1 °F 78% 29.85 in 10.0 mi SSE 6.9 mph - N/A   Overcast